Flag for Germany Weather past 2 weeks in Fürstenfeldbruck, Bavaria, Germany

Now
46 °F

Light rain. Mostly cloudy.


Feels Like: 40 °F
Forecast: 37 / 46 °F
Wind: 14 mph from Southwest

Location: Lechfeld

Current Time: Dec 19, 2014 at 11:52:07 PM

Latest Report: Dec 19, 2014 at 11:20 PM


Visibility: N/A

Pressure: 30.12 "Hg

Humidity: 93%

Dew point: 45 °F

Location of FürstenfeldbruckLocation

Historic Weather in Fürstenfeldbruck — Graph

°F

Fürstenfeldbruck temperature yesterday

Maximum temperature yesterday: 50 °F (at 8:20 PM)
Minimum temperature yesterday: 41 °F (at 12:20 AM)
Average temperature yesterday: 46 °F

Past Weeks' High & Low Weather Summary

 TemperatureHumidityPressure
High52 °F (Dec 14, 1:20 PM)100% (Dec 5, 5:20 AM)30.39 "Hg (Dec 5, 5:20 AM)
Low27 °F (Dec 10, 5:45 AM)49% (Dec 12, 9:20 PM)29.80 "Hg (Dec 12, 6:20 PM)
Average40 °F85%30.05 "Hg
* Reported Dec 4 10:20 PM — Dec 19 10:20 PM, Fürstenfeldbruck, Weather by CustomWeather, © 2014

Note: Actual official high and low records may vary slightly from our data, if they occured in-between our weather recording intervals... More about our weather records

Advertising

Fürstenfeldbruck weather history for previous 24 hours

 ConditionsComfort  
Time TempWeatherWind HumidityBarometerVisibility
10:20 PM
Dec 19
46 °FLight rain. Mostly cloudy.16 mph93%30.12 "HgN/A
9:20 PM48 °FLight rain. Mostly cloudy.18 mph87%30.09 "HgN/A
8:20 PM48 °FLight rain. Mostly cloudy.16 mph87%30.07 "HgN/A
7:20 PM48 °FLight rain. Mostly cloudy.17 mph87%30.07 "Hg6 mi
6:20 PM50 °FPassing clouds.16 mph76%30.07 "HgN/A
5:20 PM50 °FPartly cloudy.15 mph71%30.04 "HgN/A
4:20 PM52 °FPartly sunny.18 mph67%30.04 "HgN/A
3:20 PM52 °FPartly sunny.18 mph67%30.07 "HgN/A
2:20 PM52 °FPartly sunny.18 mph67%30.04 "HgN/A
1:20 PM52 °FPartly sunny.21 mph67%30.07 "HgN/A
12:20 PM52 °FScattered clouds.20 mph67%30.07 "HgN/A
11:20 AM50 °FScattered clouds.16 mph76%30.09 "HgN/A
10:20 AM50 °FScattered clouds.15 mph76%30.09 "HgN/A
9:20 AM50 °FPassing clouds.17 mph76%30.12 "HgN/A
8:20 AM48 °FScattered clouds.20 mph82%30.12 "HgN/A
7:20 AM48 °FPassing clouds.14 mph82%30.12 "HgN/A
6:20 AM48 °FPassing clouds.17 mph82%30.12 "HgN/A
5:20 AM48 °FPassing clouds.16 mph82%30.12 "HgN/A
4:20 AM48 °FPassing clouds.17 mph82%30.12 "HgN/A
3:20 AM50 °FPassing clouds.20 mph76%30.12 "HgN/A
2:20 AM50 °FPassing clouds.13 mph82%30.15 "HgN/A
1:20 AM50 °FPassing clouds.15 mph88%30.12 "HgN/A
12:20 AM52 °FPassing clouds.17 mph82%30.12 "HgN/A
11:45 PM
Dec 18
50 °FPartly cloudy.18 mph88%30.12 "HgN/A
11:20 PM50 °FPassing clouds.18 mph88%30.12 "HgN/A
Weather by CustomWeather, © 2014

See weather overviewHow to use our weather pages